Time,TemperatureF,DewpointF,PressureIn,WindDirection,WindDirectionDegrees,WindSpeedMPH,WindSpeedGustMPH,Humidity,HourlyPrecipIn,Conditions,Clouds,dailyrainin,SolarRadiationWatts/m^2,SoftwareType,DateUTC
2013-01-07 00:03:00,46.0,46.0,-100.00,NNW,332,6.0,9.0,100,0.00,,,0.00,0.000000,,2013-01-07 05:03:00,
2013-01-07 00:12:00,46.0,46.0,-100.00,NNW,332,6.0,9.0,100,0.00,,,0.00,0.000000,,2013-01-07 05:12:00,
2013-01-07 00:43:00,45.0,45.0,-100.00,NW,325,6.0,11.0,100,0.00,,,0.00,0.000000,,2013-01-07 05:43:00,
2013-01-07 00:53:00,45.0,45.0,-100.00,NW,325,6.0,11.0,100,0.00,,,0.00,0.000000,,2013-01-07 05:53:00,
2013-01-07 01:02:00,45.0,45.0,-100.00,NW,325,6.0,11.0,100,0.00,,,0.00,0.000000,,2013-01-07 06:02:00,
2013-01-07 01:12:00,45.0,45.0,-100.00,NW,325,6.0,11.0,100,0.00,,,0.00,0.000000,,2013-01-07 06:12:00,
2013-01-07 01:42:00,44.0,44.0,-100.00,NNW,332,6.0,10.0,100,0.00,,,0.00,0.000000,,2013-01-07 06:42:00,
2013-01-07 01:52:00,44.0,44.0,-100.00,NNW,332,6.0,10.0,100,0.00,,,0.00,0.000000,,2013-01-07 06:52:00,
2013-01-07 02:02:00,44.0,44.0,-100.00,NNW,332,6.0,10.0,100,0.00,,,0.00,0.000000,,2013-01-07 07:02:00,
2013-01-07 02:12:00,44.0,44.0,-100.00,NNW,332,6.0,10.0,100,0.00,,,0.00,0.000000,,2013-01-07 07:12:00,
2013-01-07 02:43:00,43.0,43.0,-100.00,NNW,333,6.0,10.0,100,0.00,,,0.00,0.000000,,2013-01-07 07:43:00,
2013-01-07 02:53:00,43.0,43.0,-100.00,NNW,333,6.0,10.0,100,0.00,,,0.00,0.000000,,2013-01-07 07:53:00,
2013-01-07 03:03:00,43.0,43.0,-100.00,NNW,333,6.0,10.0,100,0.00,,,0.00,0.000000,,2013-01-07 08:03:00,
2013-01-07 03:12:00,43.0,43.0,-100.00,NNW,333,6.0,10.0,100,0.00,,,0.00,0.000000,,2013-01-07 08:12:00,
2013-01-07 03:43:00,40.0,40.0,-100.00,NW,320,0.0,8.0,99,0.00,,,0.00,0.000000,,2013-01-07 08:43:00,
2013-01-07 03:53:00,40.0,40.0,-100.00,NW,320,0.0,8.0,99,0.00,,,0.00,0.000000,,2013-01-07 08:53:00,
2013-01-07 04:02:00,40.0,40.0,-100.00,NW,320,0.0,8.0,99,0.00,,,0.00,0.000000,,2013-01-07 09:02:00,
2013-01-07 04:12:00,40.0,40.0,-100.00,NW,320,0.0,8.0,99,0.00,,,0.00,0.000000,,2013-01-07 09:12:00,
2013-01-07 04:32:00,38.0,38.0,-100.00,NW,325,0.0,6.0,100,0.00,,,0.00,0.000000,,2013-01-07 09:32:00,
2013-01-07 04:42:00,38.0,38.0,-100.00,NW,325,0.0,6.0,100,0.00,,,0.00,0.000000,,2013-01-07 09:42:00,
2013-01-07 04:53:00,38.0,38.0,-100.00,NW,325,0.0,6.0,100,0.00,,,0.00,0.000000,,2013-01-07 09:53:00,
2013-01-07 05:02:00,38.0,38.0,-100.00,NW,325,0.0,6.0,100,0.00,,,0.00,0.000000,,2013-01-07 10:02:00,
2013-01-07 05:12:00,38.0,38.0,-100.00,NW,325,0.0,6.0,100,0.00,,,0.00,0.000000,,2013-01-07 10:12:00,
2013-01-07 05:43:00,38.0,38.0,-100.00,NNW,343,0.0,0.0,100,0.00,,,0.00,0.000000,,2013-01-07 10:43:00,
2013-01-07 05:53:00,38.0,38.0,-100.00,NNW,343,0.0,0.0,100,0.00,,,0.00,0.000000,,2013-01-07 10:53:00,
2013-01-07 06:02:00,38.0,38.0,-100.00,NNW,343,0.0,0.0,100,0.00,,,0.00,0.000000,,2013-01-07 11:02:00,
2013-01-07 06:12:00,38.0,38.0,-100.00,NNW,343,0.0,0.0,100,0.00,,,0.00,0.000000,,2013-01-07 11:12:00,
2013-01-07 06:43:00,36.0,36.0,-100.00,NNW,336,0.0,0.0,99,0.00,,,0.00,0.000000,,2013-01-07 11:43:00,
2013-01-07 06:53:00,36.0,36.0,-100.00,NNW,336,0.0,0.0,99,0.00,,,0.00,0.000000,,2013-01-07 11:53:00,
2013-01-07 07:03:00,36.0,36.0,-100.00,NNW,336,0.0,0.0,99,0.00,,,0.00,0.000000,,2013-01-07 12:03:00,
2013-01-07 07:12:00,36.0,36.0,-100.00,NNW,336,0.0,0.0,99,0.00,,,0.00,0.000000,,2013-01-07 12:12:00,
2013-01-07 07:43:00,35.0,35.0,-100.00,NNW,344,0.0,0.0,100,0.00,,,0.00,1.000000,,2013-01-07 12:43:00,
2013-01-07 07:53:00,35.0,35.0,-100.00,NNW,344,0.0,0.0,100,0.00,,,0.00,1.000000,,2013-01-07 12:53:00,
2013-01-07 08:03:00,35.0,35.0,-100.00,NNW,344,0.0,0.0,100,0.00,,,0.00,1.000000,,2013-01-07 13:03:00,
2013-01-07 08:12:00,35.0,35.0,-100.00,NNW,344,0.0,0.0,100,0.00,,,0.00,1.000000,,2013-01-07 13:12:00,
2013-01-07 08:43:00,35.0,35.0,-100.00,NNW,338,0.0,0.0,100,0.00,,,0.00,18.000000,,2013-01-07 13:43:00,
2013-01-07 09:03:00,35.0,35.0,-100.00,NNW,338,0.0,0.0,100,0.00,,,0.00,18.000000,,2013-01-07 14:03:00,
2013-01-07 09:13:00,35.0,35.0,-100.00,NNW,338,0.0,0.0,100,0.00,,,0.00,18.000000,,2013-01-07 14:13:00,
2013-01-07 09:43:00,45.0,41.0,-100.00,North,10,6.0,9.0,85,0.00,,,0.00,235.000000,,2013-01-07 14:43:00,
2013-01-07 09:53:00,45.0,41.0,-100.00,North,10,6.0,9.0,85,0.00,,,0.00,235.000000,,2013-01-07 14:53:00,
2013-01-07 10:03:00,45.0,41.0,-100.00,North,10,6.0,9.0,85,0.00,,,0.00,235.000000,,2013-01-07 15:03:00,
2013-01-07 10:12:00,45.0,41.0,-100.00,North,10,6.0,9.0,85,0.00,,,0.00,235.000000,,2013-01-07 15:12:00,
2013-01-07 10:33:00,49.0,36.0,-100.00,NE,39,7.0,15.0,61,0.00,,,0.00,421.000000,,2013-01-07 15:33:00,
2013-01-07 10:43:00,49.0,36.0,-100.00,NE,39,7.0,15.0,61,0.00,,,0.00,421.000000,,2013-01-07 15:43:00,
2013-01-07 10:53:00,49.0,36.0,-100.00,NE,39,7.0,15.0,61,0.00,,,0.00,421.000000,,2013-01-07 15:53:00,
2013-01-07 11:03:00,49.0,36.0,-100.00,NE,39,7.0,15.0,61,0.00,,,0.00,421.000000,,2013-01-07 16:03:00,
2013-01-07 11:12:00,49.0,36.0,-100.00,NE,39,7.0,15.0,61,0.00,,,0.00,421.000000,,2013-01-07 16:12:00,
2013-01-07 11:43:00,52.0,36.0,-100.00,NE,43,6.0,15.0,54,0.00,,,0.00,548.000000,,2013-01-07 16:43:00,
2013-01-07 11:53:00,52.0,36.0,-100.00,NE,43,6.0,15.0,54,0.00,,,0.00,548.000000,,2013-01-07 16:53:00,
2013-01-07 12:03:00,52.0,36.0,-100.00,NE,43,6.0,15.0,54,0.00,,,0.00,548.000000,,2013-01-07 17:03:00,
2013-01-07 12:12:00,52.0,36.0,-100.00,NE,43,6.0,15.0,54,0.00,,,0.00,548.000000,,2013-01-07 17:12:00,
2013-01-07 12:43:00,54.0,35.0,-100.00,NE,34,6.0,13.0,48,0.00,,,0.00,599.000000,,2013-01-07 17:43:00,
2013-01-07 12:53:00,54.0,35.0,-100.00,NE,34,6.0,13.0,48,0.00,,,0.00,599.000000,,2013-01-07 17:53:00,
2013-01-07 13:03:00,54.0,35.0,-100.00,NE,34,6.0,13.0,48,0.00,,,0.00,599.000000,,2013-01-07 18:03:00,
2013-01-07 13:13:00,54.0,35.0,-100.00,NE,34,6.0,13.0,48,0.00,,,0.00,599.000000,,2013-01-07 18:13:00,
2013-01-07 13:43:00,55.0,33.0,-100.00,North,7,7.0,12.0,43,0.00,,,0.00,595.000000,,2013-01-07 18:43:00,
2013-01-07 13:53:00,55.0,33.0,-100.00,North,7,7.0,12.0,43,0.00,,,0.00,595.000000,,2013-01-07 18:53:00,
2013-01-07 14:03:00,55.0,33.0,-100.00,North,7,7.0,12.0,43,0.00,,,0.00,595.000000,,2013-01-07 19:03:00,
2013-01-07 14:12:00,55.0,33.0,-100.00,North,7,7.0,12.0,43,0.00,,,0.00,595.000000,,2013-01-07 19:12:00,
2013-01-07 14:43:00,55.0,34.0,-100.00,NNE,20,7.0,14.0,45,0.00,,,0.00,519.000000,,2013-01-07 19:43:00,
2013-01-07 14:53:00,55.0,34.0,-100.00,NNE,20,7.0,14.0,45,0.00,,,0.00,519.000000,,2013-01-07 19:53:00,
2013-01-07 15:03:00,55.0,34.0,-100.00,NNE,20,7.0,14.0,45,0.00,,,0.00,519.000000,,2013-01-07 20:03:00,
2013-01-07 15:12:00,55.0,34.0,-100.00,NNE,20,7.0,14.0,45,0.00,,,0.00,519.000000,,2013-01-07 20:12:00,
2013-01-07 15:43:00,56.0,34.0,-100.00,NNE,23,3.0,11.0,43,0.00,,,0.00,394.000000,,2013-01-07 20:43:00,
2013-01-07 15:53:00,56.0,34.0,-100.00,NNE,23,3.0,11.0,43,0.00,,,0.00,394.000000,,2013-01-07 20:53:00,
2013-01-07 16:03:00,56.0,34.0,-100.00,NNE,23,3.0,11.0,43,0.00,,,0.00,394.000000,,2013-01-07 21:03:00,
2013-01-07 16:12:00,56.0,34.0,-100.00,NNE,23,3.0,11.0,43,0.00,,,0.00,394.000000,,2013-01-07 21:12:00,
2013-01-07 16:33:00,53.0,33.0,-100.00,ENE,74,1.0,10.0,46,0.00,,,0.00,175.000000,,2013-01-07 21:33:00,
2013-01-07 16:43:00,53.0,33.0,-100.00,ENE,74,1.0,10.0,46,0.00,,,0.00,175.000000,,2013-01-07 21:43:00,
2013-01-07 16:53:00,53.0,33.0,-100.00,ENE,74,1.0,10.0,46,0.00,,,0.00,175.000000,,2013-01-07 21:53:00,
2013-01-07 17:03:00,53.0,33.0,-100.00,ENE,74,1.0,10.0,46,0.00,,,0.00,175.000000,,2013-01-07 22:03:00,
2013-01-07 17:12:00,53.0,33.0,-100.00,ENE,74,1.0,10.0,46,0.00,,,0.00,175.000000,,2013-01-07 22:12:00,
2013-01-07 17:43:00,47.0,31.0,-100.00,NE,52,0.0,5.0,54,0.00,,,0.00,18.000000,,2013-01-07 22:43:00,
2013-01-07 17:53:00,47.0,31.0,-100.00,NE,52,0.0,5.0,54,0.00,,,0.00,18.000000,,2013-01-07 22:53:00,
2013-01-07 18:03:00,47.0,31.0,-100.00,NE,52,0.0,5.0,54,0.00,,,0.00,18.000000,,2013-01-07 23:03:00,
2013-01-07 18:12:00,47.0,31.0,-100.00,NE,52,0.0,5.0,54,0.00,,,0.00,18.000000,,2013-01-07 23:12:00,
2013-01-07 18:33:00,41.0,33.0,-100.00,NNE,28,0.0,0.0,74,0.00,,,0.00,0.000000,,2013-01-07 23:33:00,
2013-01-07 18:43:00,41.0,33.0,-100.00,NNE,28,0.0,0.0,74,0.00,,,0.00,0.000000,,2013-01-07 23:43:00,
2013-01-07 18:53:00,41.0,33.0,-100.00,NNE,28,0.0,0.0,74,0.00,,,0.00,0.000000,,2013-01-07 23:53:00,
2013-01-07 19:03:00,41.0,33.0,-100.00,NNE,28,0.0,0.0,74,0.00,,,0.00,0.000000,,2013-01-08 00:03:00,
2013-01-07 19:12:00,41.0,33.0,-100.00,NNE,28,0.0,0.0,74,0.00,,,0.00,0.000000,,2013-01-08 00:12:00,
2013-01-07 19:43:00,38.0,34.0,-100.00,ENE,77,0.0,0.0,85,0.00,,,0.00,0.000000,,2013-01-08 00:43:00,
2013-01-07 19:53:00,38.0,34.0,-100.00,ENE,77,0.0,0.0,85,0.00,,,0.00,0.000000,,2013-01-08 00:53:00,
2013-01-07 20:03:00,38.0,34.0,-100.00,ENE,77,0.0,0.0,85,0.00,,,0.00,0.000000,,2013-01-08 01:03:00,
2013-01-07 20:12:00,38.0,34.0,-100.00,ENE,77,0.0,0.0,85,0.00,,,0.00,0.000000,,2013-01-08 01:12:00,
2013-01-07 20:42:00,40.0,37.0,-100.00,East,80,0.0,0.0,90,0.00,,,0.00,0.000000,,2013-01-08 01:42:00,
2013-01-07 20:53:00,40.0,37.0,-100.00,East,80,0.0,0.0,90,0.00,,,0.00,0.000000,,2013-01-08 01:53:00,
2013-01-07 21:02:00,40.0,37.0,-100.00,East,80,0.0,0.0,90,0.00,,,0.00,0.000000,,2013-01-08 02:02:00,
2013-01-07 21:12:00,40.0,37.0,-100.00,East,80,0.0,0.0,90,0.00,,,0.00,0.000000,,2013-01-08 02:12:00,
2013-01-07 21:43:00,38.0,35.0,-100.00,ENE,69,0.0,0.0,90,0.00,,,0.00,0.000000,,2013-01-08 02:43:00,
2013-01-07 21:53:00,38.0,35.0,-100.00,ENE,69,0.0,0.0,90,0.00,,,0.00,0.000000,,2013-01-08 02:53:00,
2013-01-07 22:03:00,38.0,35.0,-100.00,ENE,69,0.0,0.0,90,0.00,,,0.00,0.000000,,2013-01-08 03:03:00,
2013-01-07 22:12:00,38.0,35.0,-100.00,ENE,69,0.0,0.0,90,0.00,,,0.00,0.000000,,2013-01-08 03:12:00,
2013-01-07 22:33:00,38.0,35.0,-100.00,ENE,69,0.0,0.0,90,0.00,,,0.00,0.000000,,2013-01-08 03:33:00,
2013-01-07 22:43:00,38.0,35.0,-100.00,ENE,69,0.0,0.0,90,0.00,,,0.00,0.000000,,2013-01-08 03:43:00,
2013-01-07 22:53:00,38.0,35.0,-100.00,ENE,69,0.0,0.0,90,0.00,,,0.00,0.000000,,2013-01-08 03:53:00,
2013-01-07 23:02:00,38.0,35.0,-100.00,ENE,69,0.0,0.0,90,0.00,,,0.00,0.000000,,2013-01-08 04:02:00,
2013-01-07 23:12:00,38.0,35.0,-100.00,ENE,69,0.0,0.0,90,0.00,,,0.00,0.000000,,2013-01-08 04:12:00,
2013-01-07 23:32:00,38.0,34.0,-100.00,ENE,60,0.0,0.0,84,0.00,,,0.00,0.000000,,2013-01-08 04:32:00,
2013-01-07 23:43:00,38.0,34.0,-100.00,ENE,60,0.0,0.0,84,0.00,,,0.00,0.000000,,2013-01-08 04:43:00,
2013-01-07 23:52:00,38.0,34.0,-100.00,ENE,60,0.0,0.0,84,0.00,,,0.00,0.000000,,2013-01-08 04:52:00,